Weather History for Linden, NJ

Change the Weather History Date:

Tuesday, October 22, 2013

  Actual Average (KEWR) Record (KEWR)
Temperature  
Mean Temperature 58 °F 54 °F  
Max Temperature 67 °F 63 °F 86 °F (1979)
Min Temperature 48 °F 46 °F 30 °F (1940)
Degree Days  
Heating Degree Days 8 11  
Month to date heating degree days 167  
Since 1 July heating degree days 212  
Cooling Degree Days 0 0  
Month to date cooling degree days 14  
Year to date cooling degree days 1188  
Growing Degree Days 8 (Base 50)    
Moisture  
Dew Point 45 °F    
Average Humidity 67    
Maximum Humidity 88    
Minimum Humidity 50    
Precipitation  
Precipitation 0.00 in 0.12 in 1.56 in (1984)
Month to date precipitation 2.57  
Year to date precipitation 37.76  
Snow  
Snow 0.00 in 0.00 in 0.00 in (2002)
Month to date snowfall 0.0  
Since 1 July snowfall 0.0  
Snow Depth -    
Sea Level Pressure  
Sea Level Pressure 29.86 in    
Wind  
Wind Speed 3 mph (WNW)    
Max Wind Speed 15 mph    
Max Gust Speed 18 mph    
Visibility 10 miles    
Events      
T = Trace of Precipitation, MM = Missing Value Source: NWS Daily Summary

Daily Weather History Graph

Daily Weather History Graph

Search for Another Location

Airport:

Trip Planner

Search our weather history database for the weather conditions in past years. The results will help you decide how hot, cold, wet, or windy it might be!

Date:

Astronomy

Oct. 22, 2013 Rise Set
Actual Time 7:15 AM EDT 6:06 PM EDT
Civil Twilight 6:48 AM EDT 6:34 PM EDT
Nautical Twilight 6:16 AM EDT 7:05 PM EDT
Astronomical Twilight 5:44 AM EDT 7:37 PM EDT
Moon 8:43 PM EDT (10/22) 10:42 AM EDT (10/22)
Length of Visible Light 11h 45m
Length of Day
10h 50m
Waning Gibbous, 87% of the Moon is Illuminated
Oct 22
Waning Gibbous
Oct 26
Last Quarter
Nov 3
New
Nov 10
First Quarter
Nov 17
Full

Hourly Weather History & Observations

Time (EDT) Temp. Dew Point Humidity Pressure Visibility Wind Dir Wind Speed Gust Speed Precip Events Conditions
12:15 AM 55.4 °F 45.1 °F 68% 30.01 in 10.0 mi Calm Calm - N/A   Clear
12:35 AM 54.9 °F 45.1 °F 70% 30.01 in 10.0 mi Calm Calm - N/A   Clear
12:55 AM 54.5 °F 45.3 °F 71% 30.00 in 10.0 mi Calm Calm - N/A   Clear
1:15 AM 54.1 °F 45.5 °F 73% 29.99 in 10.0 mi Calm Calm - N/A   Clear
1:35 AM 53.8 °F 45.5 °F 74% 29.99 in 10.0 mi Calm Calm - N/A   Clear
1:55 AM 53.6 °F 45.5 °F 74% 29.99 in 10.0 mi Calm Calm - N/A   Clear
2:15 AM 53.2 °F 45.7 °F 76% 29.98 in 10.0 mi Calm Calm - N/A   Clear
2:35 AM 52.9 °F 45.7 °F 77% 29.96 in 10.0 mi Calm Calm - N/A   Clear
2:55 AM 52.2 °F 45.5 °F 78% 29.96 in 10.0 mi Calm Calm - N/A   Clear
3:15 AM 51.8 °F 46.0 °F 81% 29.95 in 10.0 mi Calm Calm - N/A   Clear
3:35 AM 51.1 °F 45.7 °F 82% 29.94 in 10.0 mi Calm Calm - N/A   Clear
3:55 AM 50.5 °F 46.0 °F 85% 29.94 in 10.0 mi Calm Calm - N/A   Clear
4:15 AM 49.6 °F 45.3 °F 85% 29.93 in 10.0 mi Calm Calm - N/A   Clear
4:35 AM 49.6 °F 45.1 °F 84% 29.93 in 10.0 mi Calm Calm - N/A   Clear
4:55 AM 49.1 °F 44.8 °F 85% 29.93 in 10.0 mi Calm Calm - N/A   Clear
5:15 AM 49.3 °F 45.0 °F 85% 29.92 in 10.0 mi Calm Calm - N/A   Clear
5:35 AM 48.9 °F 44.8 °F 86% 29.91 in 10.0 mi Calm Calm - N/A   Clear
5:55 AM 48.9 °F 44.8 °F 86% 29.91 in 10.0 mi Calm Calm - N/A   Clear
6:15 AM 48.2 °F 44.1 °F 86% 29.91 in 10.0 mi Calm Calm - N/A   Clear
6:35 AM 48.0 °F 44.2 °F 87% 29.91 in 10.0 mi Calm Calm - N/A   Clear
6:55 AM 48.4 °F 44.8 °F 87% 29.90 in 10.0 mi Calm Calm - N/A   Clear
7:15 AM 48.6 °F 45.0 °F 87% 29.89 in 10.0 mi Calm Calm - N/A   Clear
7:35 AM 49.1 °F 45.7 °F 88% 29.88 in 10.0 mi Calm Calm - N/A   Clear
7:55 AM 49.1 °F 45.3 °F 87% 29.87 in 10.0 mi Calm Calm - N/A   Clear
8:15 AM 49.6 °F 45.5 °F 86% 29.87 in 10.0 mi Calm Calm - N/A   Clear
8:35 AM 51.4 °F 46.8 °F 84% 29.87 in 10.0 mi Calm Calm - N/A   Clear
8:55 AM 53.2 °F 48.0 °F 82% 29.87 in 10.0 mi Calm Calm - N/A   Clear
9:15 AM 56.1 °F 49.3 °F 78% 29.87 in 10.0 mi Calm Calm - N/A   Clear
9:35 AM 57.9 °F 49.8 °F 74% 29.86 in 10.0 mi Calm Calm - N/A   Clear
10:15 AM 61.2 °F 48.2 °F 62% 29.86 in 10.0 mi West 5.8 mph - N/A   Clear
10:35 AM 62.4 °F 47.8 °F 59% 29.85 in 10.0 mi West 9.2 mph - N/A   Clear
10:55 AM 63.5 °F 48.0 °F 57% 29.85 in 10.0 mi West 6.9 mph - N/A   Scattered Clouds
11:15 AM 63.9 °F 48.0 °F 56% 29.85 in 10.0 mi Calm Calm - N/A   Overcast
11:35 AM 65.5 °F 48.9 °F 55% 29.84 in 10.0 mi West 8.1 mph - N/A   Overcast
11:55 AM 65.3 °F 48.7 °F 55% 29.83 in 10.0 mi WNW 9.2 mph - N/A   Mostly Cloudy
12:15 PM 66.6 °F 48.6 °F 52% 29.83 in 10.0 mi WNW 5.8 mph - N/A   Scattered Clouds
12:35 PM 66.4 °F 46.9 °F 50% 29.82 in 10.0 mi WNW 10.4 mph 17.3 mph N/A   Scattered Clouds
12:55 PM 66.9 °F 47.8 °F 50% 29.81 in 10.0 mi WNW 6.9 mph - N/A   Mostly Cloudy
1:15 PM 67.1 °F 47.7 °F 50% 29.81 in 10.0 mi WNW 11.5 mph 18.4 mph N/A   Overcast
1:35 PM 66.2 °F 47.8 °F 52% 29.80 in 10.0 mi WNW 15.0 mph 18.4 mph N/A   Overcast
1:55 PM 64.9 °F 48.0 °F 54% 29.80 in 10.0 mi NW 12.7 mph 16.1 mph N/A   Overcast
2:15 PM 63.9 °F 46.2 °F 53% 29.81 in 10.0 mi NW 10.4 mph - N/A   Overcast
2:35 PM 62.6 °F 46.8 °F 56% 29.81 in 10.0 mi WNW 9.2 mph - N/A   Light Drizzle
2:55 PM 62.2 °F 45.3 °F 54% 29.80 in 10.0 mi WNW 10.4 mph - N/A   Overcast
3:15 PM 62.1 °F 45.1 °F 54% 29.80 in 10.0 mi West 8.1 mph - N/A   Overcast
3:35 PM 62.2 °F 46.2 °F 56% 29.78 in 10.0 mi West 5.8 mph - N/A   Overcast
3:55 PM 61.9 °F 45.3 °F 55% 29.79 in 10.0 mi West 6.9 mph - N/A   Overcast
4:15 PM 62.1 °F 44.6 °F 53% 29.79 in 10.0 mi West 5.8 mph - N/A   Overcast
4:35 PM 62.1 °F 45.7 °F 55% 29.79 in 10.0 mi West 9.2 mph - N/A   Mostly Cloudy
4:55 PM 62.8 °F 44.6 °F 51% 29.79 in 10.0 mi West 11.5 mph - N/A   Scattered Clouds
5:15 PM 62.2 °F 45.3 °F 54% 29.79 in 10.0 mi West 9.2 mph - N/A   Clear
5:35 PM 61.7 °F 45.5 °F 55% 29.80 in 10.0 mi West 4.6 mph - N/A   Clear
5:55 PM 61.3 °F 45.3 °F 56% 29.79 in 10.0 mi West 5.8 mph - N/A   Clear
6:15 PM 60.6 °F 45.5 °F 57% 29.80 in 10.0 mi West 5.8 mph - N/A   Clear
6:35 PM 59.9 °F 45.9 °F 60% 29.80 in 10.0 mi West 4.6 mph - N/A   Clear
6:55 PM 59.4 °F 46.0 °F 61% 29.80 in 10.0 mi West 4.6 mph - N/A   Clear
7:15 PM 58.6 °F 46.2 °F 63% 29.81 in 10.0 mi West 4.6 mph - N/A   Clear
7:35 PM 58.1 °F 46.4 °F 65% 29.81 in 10.0 mi West 5.8 mph - N/A   Clear
7:55 PM 57.9 °F 46.6 °F 66% 29.81 in 10.0 mi West 5.8 mph - N/A   Clear
8:15 PM 57.2 °F 46.8 °F 68% 29.82 in 10.0 mi West 4.6 mph - N/A   Clear
8:35 PM 56.7 °F 46.8 °F 69% 29.82 in 10.0 mi West 4.6 mph - N/A   Clear
8:55 PM 56.3 °F 45.7 °F 68% 29.82 in 10.0 mi West 5.8 mph - N/A   Clear
9:15 PM 56.3 °F 43.0 °F 61% 29.83 in 10.0 mi West 6.9 mph - N/A   Clear
9:35 PM 55.8 °F 41.2 °F 58% 29.83 in 10.0 mi West 6.9 mph - N/A   Clear
9:55 PM 54.5 °F 40.6 °F 60% 29.83 in 10.0 mi WNW 6.9 mph - N/A   Clear
10:15 PM 52.3 °F 41.0 °F 65% 29.84 in 10.0 mi WNW 6.9 mph - N/A   Clear
10:35 PM 51.8 °F 38.1 °F 60% 29.84 in 10.0 mi NW 8.1 mph - N/A   Clear
11:15 PM 50.0 °F 35.6 °F 58% 29.84 in 10.0 mi NW 3.5 mph - N/A   Clear
11:35 PM 50.4 °F 35.4 °F 57% 29.84 in 10.0 mi Calm Calm - N/A   Clear
11:55 PM 48.9 °F 35.1 °F 59% 29.84 in 10.0 mi WNW 5.8 mph - N/A   Clear